User: anonymous   Login
Location: Unspecified
(0.0000°N, 0.0000°E)
Time: 05:21:29
(UTC+00:00)
Language:

GONETS M 13 (M23) - Orbit

View from above orbital plane
View from above orbital plane
View from above satellite
View from above satellite

Ground track
Ground track

The orbit data is extracted from the following two-line orbital elements,

1 40554U 15020C   18146.48707016 +.00000043 +00000-0 +24043-3 0  9992
2 40554 082.4874 064.9642 0011830 274.6980 085.2744 12.42870822143096
Epoch (UTC): 26 May 2018 11:41:22
Eccentricity: 0.0011830
inclination: 82.4874°
perigee height: 1485 km
apogee height: 1504 km
right ascension of ascending node: 64.9642°
argument of perigee: 274.6980°
revolutions per day: 12.42870822
mean anomaly at epoch: 85.2744°
orbit number at epoch: 14309

The dashed part of the orbit path shows where the satellite is in the earth's shadow,  

DLR